Time,TemperatureF,DewpointF,PressureIn,WindDirection,WindDirectionDegrees,WindSpeedMPH,WindSpeedGustMPH,Humidity,HourlyPrecipIn,Conditions,Clouds,dailyrainin,SoftwareType,DateUTC
2013-02-26 00:00:00,33.8,33.3,28.79,NNE,22,8.7,9.4,98,0.00,,---,0.00,VWS V14.01,2013-02-26 06:00:00,
2013-02-26 00:01:00,33.8,33.3,28.79,NNE,22,8.7,9.4,98,0.00,,---,0.00,VWS V14.01,2013-02-26 06:01:00,
2013-02-26 00:02:00,33.8,33.3,28.79,NNE,22,8.1,13.2,98,0.00,,---,0.00,VWS V14.01,2013-02-26 06:02:00,
2013-02-26 00:03:00,33.8,33.3,28.79,NNE,22,15.2,15.2,98,0.00,,---,0.00,VWS V14.01,2013-02-26 06:03:00,
2013-02-26 00:04:00,33.8,33.3,28.79,NNE,22,13.2,15.2,98,0.00,,---,0.00,VWS V14.01,2013-02-26 06:04:00,
2013-02-26 00:05:00,33.8,33.3,28.79,NNE,22,10.7,10.7,98,0.00,,---,0.00,VWS V14.01,2013-02-26 06:05:00,
2013-02-26 00:06:00,33.8,33.3,28.79,NNE,22,10.5,10.5,98,0.00,,---,0.00,VWS V14.01,2013-02-26 06:06:00,
2013-02-26 00:07:00,33.8,33.3,28.79,NNE,22,10.3,12.8,98,0.00,,---,0.00,VWS V14.01,2013-02-26 06:07:00,
2013-02-26 00:08:00,33.8,33.3,28.79,NNE,22,10.1,12.3,98,0.00,,---,0.00,VWS V14.01,2013-02-26 06:08:00,
2013-02-26 00:09:00,33.8,33.3,28.79,NNE,22,10.7,13.0,98,0.00,,---,0.00,VWS V14.01,2013-02-26 06:09:00,
2013-02-26 00:10:00,33.8,33.3,28.79,NNE,22,10.5,13.0,98,0.00,,---,0.00,VWS V14.01,2013-02-26 06:10:00,
2013-02-26 00:11:00,33.6,33.1,28.79,North,0,12.3,12.8,98,0.00,,---,0.00,VWS V14.01,2013-02-26 06:11:00,
2013-02-26 00:12:00,33.6,33.1,28.79,North,0,10.3,13.0,98,0.00,,---,0.00,VWS V14.01,2013-02-26 06:12:00,
2013-02-26 00:13:00,33.8,33.3,28.79,NNE,22,8.7,13.0,98,0.00,,---,0.00,VWS V14.01,2013-02-26 06:13:00,
2013-02-26 00:14:00,34.0,33.5,28.79,NNE,22,10.1,17.2,98,0.00,,---,0.00,VWS V14.01,2013-02-26 06:14:00,
2013-02-26 00:15:00,34.0,33.5,28.79,North,0,13.2,13.2,98,0.00,,---,0.00,VWS V14.01,2013-02-26 06:15:00,
2013-02-26 00:16:00,34.0,33.5,28.79,NNE,22,12.5,13.0,98,0.00,,---,0.00,VWS V14.01,2013-02-26 06:16:00,
2013-02-26 00:17:00,34.0,33.5,28.79,North,0,12.5,13.2,98,0.00,,---,0.00,VWS V14.01,2013-02-26 06:17:00,
2013-02-26 00:18:00,34.0,33.5,28.79,NNE,22,9.4,12.5,98,0.00,,---,0.00,VWS V14.01,2013-02-26 06:18:00,
2013-02-26 00:19:00,34.0,33.5,28.79,NNE,22,11.0,11.0,98,0.00,,---,0.00,VWS V14.01,2013-02-26 06:19:00,
2013-02-26 00:20:00,34.0,33.5,28.79,North,0,10.5,10.5,98,0.00,,---,0.00,VWS V14.01,2013-02-26 06:20:00,
2013-02-26 00:21:00,34.0,33.5,28.79,North,0,10.5,10.5,98,0.00,,---,0.00,VWS V14.01,2013-02-26 06:21:00,
2013-02-26 00:22:00,34.0,33.5,28.79,NNE,22,9.8,13.2,98,0.00,,---,0.00,VWS V14.01,2013-02-26 06:22:00,
2013-02-26 00:23:00,33.8,33.3,28.79,North,0,10.5,10.5,98,0.00,,---,0.00,VWS V14.01,2013-02-26 06:23:00,
2013-02-26 00:24:00,33.8,33.3,28.79,North,0,10.1,13.0,98,0.00,,---,0.00,VWS V14.01,2013-02-26 06:24:00,
2013-02-26 00:25:00,33.8,33.3,28.79,NNW,338,11.0,11.0,98,0.00,,---,0.00,VWS V14.01,2013-02-26 06:25:00,
2013-02-26 00:26:00,33.8,33.3,28.79,NNE,22,10.3,12.8,98,0.00,,---,0.00,VWS V14.01,2013-02-26 06:26:00,
2013-02-26 00:27:00,33.8,33.3,28.79,North,0,11.0,12.5,98,0.00,,---,0.00,VWS V14.01,2013-02-26 06:27:00,
2013-02-26 00:28:00,33.8,33.3,28.79,North,0,11.0,11.0,98,0.00,,---,0.00,VWS V14.01,2013-02-26 06:28:00,
2013-02-26 00:29:00,33.8,33.3,28.79,North,0,7.6,11.0,98,0.00,,---,0.00,VWS V14.01,2013-02-26 06:29:00,
2013-02-26 00:30:00,33.8,33.3,28.79,NNE,22,10.1,17.2,98,0.00,,---,0.00,VWS V14.01,2013-02-26 06:30:00,
2013-02-26 00:31:00,33.8,33.3,28.79,NNE,22,10.5,17.2,98,0.00,,---,0.00,VWS V14.01,2013-02-26 06:31:00,
2013-02-26 00:32:00,33.8,33.3,28.79,NNE,22,17.5,17.5,98,0.00,,---,0.00,VWS V14.01,2013-02-26 06:32:00,
2013-02-26 00:33:00,33.8,33.3,28.79,NNE,22,15.9,17.5,98,0.00,,---,0.00,VWS V14.01,2013-02-26 06:33:00,
2013-02-26 00:34:00,33.8,33.3,28.79,North,0,10.7,15.9,98,0.00,,---,0.00,VWS V14.01,2013-02-26 06:34:00,
2013-02-26 00:35:00,33.8,33.3,28.76,North,0,12.1,13.2,98,0.00,,---,0.00,VWS V14.01,2013-02-26 06:35:00,
2013-02-26 00:36:00,33.8,33.3,28.76,NNE,22,13.2,20.6,98,0.00,,---,0.00,VWS V14.01,2013-02-26 06:36:00,
2013-02-26 00:37:00,33.8,33.3,28.76,NNW,338,10.1,13.2,98,0.00,,---,0.00,VWS V14.01,2013-02-26 06:37:00,
2013-02-26 00:38:00,33.8,33.3,28.76,North,0,13.2,16.1,98,0.00,,---,0.00,VWS V14.01,2013-02-26 06:38:00,
2013-02-26 00:39:00,33.8,33.3,28.76,NNE,22,13.2,13.2,98,0.00,,---,0.00,VWS V14.01,2013-02-26 06:39:00,
2013-02-26 00:40:00,33.8,33.3,28.76,NNE,22,11.9,15.4,98,0.00,,---,0.00,VWS V14.01,2013-02-26 06:40:00,
2013-02-26 00:41:00,33.8,33.3,28.76,North,0,15.4,15.4,98,0.00,,---,0.00,VWS V14.01,2013-02-26 06:41:00,
2013-02-26 00:42:00,33.8,33.3,28.76,NNE,22,19.2,19.2,98,0.00,,---,0.00,VWS V14.01,2013-02-26 06:42:00,
2013-02-26 00:43:00,33.8,33.3,28.76,NNE,22,15.7,19.7,98,0.00,,---,0.00,VWS V14.01,2013-02-26 06:43:00,
2013-02-26 00:44:00,33.8,33.3,28.76,NNE,22,12.8,15.7,98,0.00,,---,0.00,VWS V14.01,2013-02-26 06:44:00,
2013-02-26 00:45:00,33.8,33.3,28.76,North,0,11.4,15.2,98,0.00,,---,0.00,VWS V14.01,2013-02-26 06:45:00,
2013-02-26 00:46:00,33.8,33.3,28.76,North,0,11.4,15.2,98,0.00,,---,0.00,VWS V14.01,2013-02-26 06:46:00,
2013-02-26 00:47:00,33.8,33.3,28.76,NNE,22,14.3,14.3,98,0.00,,---,0.00,VWS V14.01,2013-02-26 06:47:00,
2013-02-26 00:48:00,33.8,33.3,28.76,NNE,22,11.4,15.2,98,0.00,,---,0.00,VWS V14.01,2013-02-26 06:48:00,
2013-02-26 00:49:00,33.8,33.3,28.76,NNE,22,10.5,13.2,98,0.00,,---,0.00,VWS V14.01,2013-02-26 06:49:00,
2013-02-26 00:50:00,33.8,33.3,28.79,NNE,22,16.3,16.3,98,0.00,,---,0.00,VWS V14.01,2013-02-26 06:50:00,
2013-02-26 00:51:00,33.8,33.3,28.79,NNE,22,13.2,13.2,98,0.00,,---,0.00,VWS V14.01,2013-02-26 06:51:00,
2013-02-26 00:52:00,33.8,33.3,28.79,NNE,22,13.0,16.3,98,0.00,,---,0.00,VWS V14.01,2013-02-26 06:52:00,
2013-02-26 00:53:00,33.8,33.3,28.79,NNE,22,11.0,13.6,98,0.00,,---,0.00,VWS V14.01,2013-02-26 06:53:00,
2013-02-26 00:54:00,33.8,33.3,28.79,NNE,22,11.0,11.0,98,0.00,,---,0.00,VWS V14.01,2013-02-26 06:54:00,
2013-02-26 00:55:00,33.8,33.3,28.79,NNE,22,12.8,12.8,98,0.00,,---,0.00,VWS V14.01,2013-02-26 06:55:00,
2013-02-26 00:56:00,33.8,33.3,28.79,NNE,22,12.8,13.6,98,0.00,,---,0.00,VWS V14.01,2013-02-26 06:56:00,
2013-02-26 00:57:00,33.8,33.3,28.79,North,0,16.1,17.7,98,0.00,,---,0.00,VWS V14.01,2013-02-26 06:57:00,
2013-02-26 00:58:00,33.8,33.3,28.79,NNE,22,13.0,16.1,98,0.00,,---,0.00,VWS V14.01,2013-02-26 06:58:00,
2013-02-26 00:59:00,33.6,33.1,28.79,NNW,338,8.7,13.0,98,0.00,,---,0.00,VWS V14.01,2013-02-26 06:59:00,
2013-02-26 01:00:00,33.6,33.1,28.79,NNE,22,12.8,12.8,98,0.00,,---,0.00,VWS V14.01,2013-02-26 07:00:00,
2013-02-26 01:01:00,33.6,33.1,28.79,North,0,10.1,15.4,98,0.00,,---,0.00,VWS V14.01,2013-02-26 07:01:00,
2013-02-26 01:02:00,33.6,33.1,28.79,NNW,338,11.4,13.2,98,0.00,,---,0.00,VWS V14.01,2013-02-26 07:02:00,
2013-02-26 01:03:00,33.6,33.1,28.79,North,0,7.8,11.4,98,0.00,,---,0.00,VWS V14.01,2013-02-26 07:03:00,
2013-02-26 01:04:00,33.6,33.1,28.79,NNW,338,8.1,10.7,98,0.00,,---,0.00,VWS V14.01,2013-02-26 07:04:00,
2013-02-26 01:05:00,33.6,33.1,28.79,North,0,19.0,19.0,98,0.00,,---,0.00,VWS V14.01,2013-02-26 07:05:00,
2013-02-26 01:06:00,33.6,33.1,28.79,NNE,22,8.5,16.3,98,0.00,,---,0.00,VWS V14.01,2013-02-26 07:06:00,
2013-02-26 01:07:00,33.6,33.1,28.79,NNE,22,13.2,19.0,98,0.00,,---,0.00,VWS V14.01,2013-02-26 07:07:00,
2013-02-26 01:08:00,33.6,33.1,28.79,NNE,22,11.9,15.4,98,0.00,,---,0.00,VWS V14.01,2013-02-26 07:08:00,
2013-02-26 01:09:00,33.6,33.1,28.79,North,0,11.0,14.8,98,0.00,,---,0.00,VWS V14.01,2013-02-26 07:09:00,
2013-02-26 01:10:00,33.6,33.1,28.79,NNE,22,13.0,13.0,98,0.00,,---,0.00,VWS V14.01,2013-02-26 07:10:00,
2013-02-26 01:11:00,33.6,33.1,28.79,North,0,12.3,12.8,98,0.00,,---,0.00,VWS V14.01,2013-02-26 07:11:00,
2013-02-26 01:12:00,33.6,33.1,28.79,North,0,10.3,13.0,98,0.00,,---,0.00,VWS V14.01,2013-02-26 07:12:00,
2013-02-26 01:13:00,33.6,33.1,28.79,North,0,12.8,17.7,98,0.00,,---,0.00,VWS V14.01,2013-02-26 07:13:00,
2013-02-26 01:14:00,33.6,33.1,28.79,North,0,12.8,12.8,98,0.00,,---,0.00,VWS V14.01,2013-02-26 07:14:00,
2013-02-26 01:15:00,33.6,33.1,28.79,NNE,22,12.5,13.2,98,0.00,,---,0.00,VWS V14.01,2013-02-26 07:15:00,
2013-02-26 01:16:00,33.6,33.1,28.79,NNW,338,5.6,13.4,98,0.00,,---,0.00,VWS V14.01,2013-02-26 07:16:00,
2013-02-26 01:17:00,33.6,33.1,28.79,North,0,6.5,13.2,98,0.00,,---,0.00,VWS V14.01,2013-02-26 07:17:00,
2013-02-26 01:18:00,33.4,32.9,28.76,NNE,22,10.1,13.0,98,0.00,,---,0.00,VWS V14.01,2013-02-26 07:18:00,
2013-02-26 01:19:00,33.6,33.1,28.79,NNW,338,7.6,12.3,98,0.00,,---,0.00,VWS V14.01,2013-02-26 07:19:00,
2013-02-26 01:20:00,33.6,33.1,28.76,North,0,15.7,15.7,98,0.00,,---,0.00,VWS V14.01,2013-02-26 07:20:00,
2013-02-26 01:21:00,33.6,33.1,28.76,NNE,22,14.1,14.8,98,0.00,,---,0.00,VWS V14.01,2013-02-26 07:21:00,
2013-02-26 01:22:00,33.6,33.1,28.76,NNW,338,9.6,15.7,98,0.00,,---,0.00,VWS V14.01,2013-02-26 07:22:00,
2013-02-26 01:23:00,33.6,33.1,28.76,NNW,338,12.8,13.2,98,0.00,,---,0.00,VWS V14.01,2013-02-26 07:23:00,
2013-02-26 01:24:00,33.6,33.1,28.76,North,0,15.2,18.8,98,0.00,,---,0.00,VWS V14.01,2013-02-26 07:24:00,
2013-02-26 01:25:00,33.6,33.1,28.76,North,0,10.5,10.5,98,0.00,,---,0.00,VWS V14.01,2013-02-26 07:25:00,
2013-02-26 01:26:00,33.6,33.1,28.76,North,0,8.5,8.5,98,0.00,,---,0.00,VWS V14.01,2013-02-26 07:26:00,
2013-02-26 01:27:00,33.6,33.1,28.76,North,0,10.5,10.5,98,0.00,,---,0.00,VWS V14.01,2013-02-26 07:27:00,
2013-02-26 01:28:00,33.6,33.1,28.76,NNW,338,10.1,10.5,98,0.00,,---,0.00,VWS V14.01,2013-02-26 07:28:00,
2013-02-26 01:29:00,33.6,33.1,28.76,NNW,338,10.1,10.1,98,0.00,,---,0.00,VWS V14.01,2013-02-26 07:29:00,
2013-02-26 01:30:00,33.6,33.1,28.76,NNW,338,8.5,10.5,98,0.00,,---,0.00,VWS V14.01,2013-02-26 07:30:00,
2013-02-26 01:31:00,33.6,33.1,28.76,NNE,22,10.5,11.2,98,0.00,,---,0.00,VWS V14.01,2013-02-26 07:31:00,
2013-02-26 01:32:00,33.6,33.1,28.76,North,0,8.7,10.5,98,0.00,,---,0.00,VWS V14.01,2013-02-26 07:32:00,
2013-02-26 01:33:00,33.6,33.1,28.76,NNE,22,12.3,13.0,98,0.00,,---,0.00,VWS V14.01,2013-02-26 07:33:00,
2013-02-26 01:34:00,33.6,33.1,28.76,NNE,22,12.3,12.3,98,0.00,,---,0.00,VWS V14.01,2013-02-26 07:34:00,
2013-02-26 01:35:00,33.6,33.1,28.76,NNE,22,10.7,11.0,98,0.00,,---,0.00,VWS V14.01,2013-02-26 07:35:00,
2013-02-26 01:36:00,33.6,33.1,28.76,North,0,11.0,11.0,98,0.00,,---,0.00,VWS V14.01,2013-02-26 07:36:00,
2013-02-26 01:37:00,33.6,33.1,28.76,NNE,22,8.1,11.0,98,0.00,,---,0.00,VWS V14.01,2013-02-26 07:37:00,
2013-02-26 01:38:00,33.6,33.1,28.76,NNE,22,8.1,12.8,98,0.00,,---,0.00,VWS V14.01,2013-02-26 07:38:00,
2013-02-26 01:39:00,33.6,33.1,28.76,North,0,8.7,12.3,98,0.00,,---,0.00,VWS V14.01,2013-02-26 07:39:00,
2013-02-26 01:40:00,33.6,33.1,28.76,NNE,22,10.1,10.1,98,0.00,,---,0.00,VWS V14.01,2013-02-26 07:40:00,
2013-02-26 01:41:00,33.6,33.1,28.76,North,0,8.7,12.8,98,0.00,,---,0.00,VWS V14.01,2013-02-26 07:41:00,
2013-02-26 01:42:00,33.6,33.1,28.76,NNE,22,14.8,14.8,98,0.00,,---,0.00,VWS V14.01,2013-02-26 07:42:00,
2013-02-26 01:43:00,33.6,33.1,28.76,NNE,22,12.3,14.8,98,0.00,,---,0.00,VWS V14.01,2013-02-26 07:43:00,
2013-02-26 01:44:00,33.6,33.1,28.76,NNE,22,9.6,13.9,98,0.00,,---,0.00,VWS V14.01,2013-02-26 07:44:00,
2013-02-26 01:45:00,33.6,33.1,28.76,NNE,22,8.7,10.5,98,0.00,,---,0.00,VWS V14.01,2013-02-26 07:45:00,
2013-02-26 01:46:00,33.6,33.1,28.76,NNE,22,10.5,12.5,98,0.00,,---,0.00,VWS V14.01,2013-02-26 07:46:00,
2013-02-26 01:47:00,33.6,33.1,28.76,NNE,22,7.4,11.0,98,0.00,,---,0.00,VWS V14.01,2013-02-26 07:47:00,
2013-02-26 01:48:00,33.6,33.1,28.76,North,0,14.5,14.5,98,0.00,,---,0.00,VWS V14.01,2013-02-26 07:48:00,
2013-02-26 01:49:00,33.6,33.1,28.76,North,0,10.5,14.5,98,0.00,,---,0.00,VWS V14.01,2013-02-26 07:49:00,
2013-02-26 01:50:00,33.4,32.9,28.76,North,0,8.1,10.5,98,0.00,,---,0.00,VWS V14.01,2013-02-26 07:50:00,
2013-02-26 01:51:00,33.4,32.9,28.76,NNW,338,10.5,10.7,98,0.00,,---,0.00,VWS V14.01,2013-02-26 07:51:00,
2013-02-26 01:52:00,33.4,32.9,28.76,NNE,22,10.3,10.5,98,0.00,,---,0.00,VWS V14.01,2013-02-26 07:52:00,
2013-02-26 01:53:00,33.4,32.9,28.76,North,0,9.0,11.2,98,0.00,,---,0.00,VWS V14.01,2013-02-26 07:53:00,
2013-02-26 01:54:00,33.4,32.9,28.76,NNE,22,7.8,13.2,98,0.00,,---,0.00,VWS V14.01,2013-02-26 07:54:00,
2013-02-26 01:55:00,33.6,33.1,28.76,NNE,22,7.8,11.0,98,0.00,,---,0.00,VWS V14.01,2013-02-26 07:55:00,
2013-02-26 01:56:00,33.4,32.9,28.76,NNE,22,11.0,12.8,98,0.00,,---,0.00,VWS V14.01,2013-02-26 07:56:00,
2013-02-26 01:57:00,33.4,32.9,28.73,NNW,338,5.6,7.8,98,0.00,,---,0.00,VWS V14.01,2013-02-26 07:57:00,
2013-02-26 01:58:00,33.6,33.1,28.76,North,0,12.5,12.5,98,0.00,,---,0.00,VWS V14.01,2013-02-26 07:58:00,
2013-02-26 01:59:00,33.6,33.1,28.76,NNE,22,10.5,12.5,98,0.00,,---,0.00,VWS V14.01,2013-02-26 07:59:00,
2013-02-26 02:00:00,33.6,33.1,28.76,North,0,15.4,15.4,98,0.00,,---,0.00,VWS V14.01,2013-02-26 08:00:00,
2013-02-26 02:01:00,33.6,33.1,28.76,North,0,10.7,11.0,98,0.00,,---,0.00,VWS V14.01,2013-02-26 08:01:00,
2013-02-26 02:02:00,33.6,33.1,28.76,NNE,22,12.8,15.4,98,0.00,,---,0.00,VWS V14.01,2013-02-26 08:02:00,
2013-02-26 02:03:00,33.6,33.1,28.76,NNE,22,7.8,12.8,98,0.00,,---,0.00,VWS V14.01,2013-02-26 08:03:00,
2013-02-26 02:04:00,33.6,33.1,28.76,NNW,338,8.5,11.0,98,0.00,,---,0.00,VWS V14.01,2013-02-26 08:04:00,
2013-02-26 02:05:00,33.6,33.1,28.76,North,0,7.6,11.0,98,0.00,,---,0.00,VWS V14.01,2013-02-26 08:05:00,
2013-02-26 02:06:00,33.6,33.1,28.76,North,0,8.7,12.1,98,0.00,,---,0.00,VWS V14.01,2013-02-26 08:06:00,
2013-02-26 02:07:00,33.6,33.1,28.76,North,0,5.6,11.0,98,0.00,,---,0.00,VWS V14.01,2013-02-26 08:07:00,
2013-02-26 02:08:00,33.6,33.1,28.76,NNE,22,11.0,11.0,98,0.00,,---,0.00,VWS V14.01,2013-02-26 08:08:00,
2013-02-26 02:09:00,33.6,33.1,28.76,NNE,22,9.8,11.0,98,0.00,,---,0.00,VWS V14.01,2013-02-26 08:09:00,
2013-02-26 02:10:00,33.6,33.1,28.76,North,0,7.6,11.4,98,0.00,,---,0.00,VWS V14.01,2013-02-26 08:10:00,
2013-02-26 02:11:00,33.6,33.1,28.76,North,0,11.4,13.9,98,0.00,,---,0.00,VWS V14.01,2013-02-26 08:11:00,
2013-02-26 02:12:00,33.6,33.1,28.76,NNE,22,9.6,11.4,98,0.00,,---,0.00,VWS V14.01,2013-02-26 08:12:00,
2013-02-26 02:13:00,33.6,33.1,28.76,North,0,10.3,10.5,98,0.00,,---,0.00,VWS V14.01,2013-02-26 08:13:00,
2013-02-26 02:14:00,33.6,33.1,28.76,North,0,10.1,10.3,98,0.00,,---,0.00,VWS V14.01,2013-02-26 08:14:00,
2013-02-26 02:15:00,33.4,32.9,28.76,North,0,11.0,11.0,98,0.00,,---,0.00,VWS V14.01,2013-02-26 08:15:00,
2013-02-26 02:16:00,33.4,32.9,28.76,North,0,8.1,10.3,98,0.00,,---,0.00,VWS V14.01,2013-02-26 08:16:00,
2013-02-26 02:17:00,33.4,32.9,28.76,NNW,338,8.5,12.3,98,0.00,,---,0.00,VWS V14.01,2013-02-26 08:17:00,
2013-02-26 02:18:00,33.4,32.9,28.76,NNE,22,10.1,13.0,98,0.00,,---,0.00,VWS V14.01,2013-02-26 08:18:00,
2013-02-26 02:19:00,33.4,32.9,28.76,North,0,8.5,10.1,98,0.00,,---,0.00,VWS V14.01,2013-02-26 08:19:00,
2013-02-26 02:20:00,33.4,32.9,28.76,NW,315,6.5,7.6,98,0.00,,---,0.00,VWS V14.01,2013-02-26 08:20:00,
2013-02-26 02:21:00,33.4,32.9,28.76,North,0,4.9,7.8,98,0.00,,---,0.00,VWS V14.01,2013-02-26 08:21:00,
2013-02-26 02:22:00,33.4,32.9,28.76,NNE,22,7.8,7.8,98,0.00,,---,0.00,VWS V14.01,2013-02-26 08:22:00,
2013-02-26 02:23:00,33.4,32.9,28.76,NNW,338,5.4,7.8,98,0.00,,---,0.00,VWS V14.01,2013-02-26 08:23:00,
2013-02-26 02:24:00,33.4,32.9,28.76,North,0,8.1,8.7,98,0.00,,---,0.00,VWS V14.01,2013-02-26 08:24:00,
2013-02-26 02:25:00,33.4,32.9,28.76,NNW,338,8.1,8.7,98,0.00,,---,0.00,VWS V14.01,2013-02-26 08:25:00,
2013-02-26 02:26:00,33.4,32.9,28.76,NNE,22,8.7,8.7,98,0.00,,---,0.00,VWS V14.01,2013-02-26 08:26:00,
2013-02-26 02:27:00,33.4,32.9,28.76,NNE,22,12.5,12.5,98,0.00,,---,0.00,VWS V14.01,2013-02-26 08:27:00,
2013-02-26 02:28:00,33.4,32.9,28.76,NNW,338,10.3,12.5,98,0.00,,---,0.00,VWS V14.01,2013-02-26 08:28:00,
2013-02-26 02:29:00,33.4,32.9,28.76,NNE,22,6.0,10.3,98,0.00,,---,0.00,VWS V14.01,2013-02-26 08:29:00,
2013-02-26 02:30:00,33.4,32.9,28.76,NNE,22,6.3,7.6,98,0.00,,---,0.00,VWS V14.01,2013-02-26 08:30:00,
2013-02-26 02:31:00,33.4,32.9,28.76,NNE,22,7.6,9.0,98,0.00,,---,0.00,VWS V14.01,2013-02-26 08:31:00,
2013-02-26 02:32:00,33.4,32.9,28.76,NNE,22,7.8,9.2,98,0.00,,---,0.00,VWS V14.01,2013-02-26 08:32:00,
2013-02-26 02:33:00,33.4,32.9,28.76,NNE,22,9.0,10.7,98,0.00,,---,0.00,VWS V14.01,2013-02-26 08:33:00,
2013-02-26 02:34:00,33.4,32.9,28.76,North,0,7.6,9.0,98,0.00,,---,0.00,VWS V14.01,2013-02-26 08:34:00,
2013-02-26 02:35:00,33.4,32.9,28.73,NNE,22,7.6,7.6,98,0.00,,---,0.00,VWS V14.01,2013-02-26 08:35:00,
2013-02-26 02:36:00,33.4,32.9,28.73,NNE,22,5.8,8.5,98,0.00,,---,0.00,VWS V14.01,2013-02-26 08:36:00,
2013-02-26 02:37:00,33.4,32.9,28.73,NNE,22,10.5,10.5,98,0.00,,---,0.00,VWS V14.01,2013-02-26 08:37:00,
2013-02-26 02:38:00,33.4,32.9,28.73,NNW,338,6.5,10.5,98,0.00,,---,0.00,VWS V14.01,2013-02-26 08:38:00,
2013-02-26 02:39:00,33.4,32.9,28.73,NNE,22,6.3,10.5,98,0.00,,---,0.00,VWS V14.01,2013-02-26 08:39:00,
2013-02-26 02:40:00,33.4,32.9,28.73,North,0,10.5,10.5,98,0.00,,---,0.00,VWS V14.01,2013-02-26 08:40:00,
2013-02-26 02:41:00,33.4,32.9,28.73,North,0,8.5,8.7,98,0.00,,---,0.00,VWS V14.01,2013-02-26 08:41:00,
2013-02-26 02:42:00,33.4,32.9,28.73,NNE,22,9.8,12.8,98,0.00,,---,0.00,VWS V14.01,2013-02-26 08:42:00,
2013-02-26 02:43:00,33.4,32.9,28.73,NNE,22,5.8,9.8,98,0.00,,---,0.00,VWS V14.01,2013-02-26 08:43:00,
2013-02-26 02:44:00,33.4,32.9,28.73,NNW,338,10.1,12.1,98,0.00,,---,0.00,VWS V14.01,2013-02-26 08:44:00,
2013-02-26 02:45:00,33.4,32.9,28.73,NNW,338,3.4,6.9,98,0.00,,---,0.00,VWS V14.01,2013-02-26 08:45:00,
2013-02-26 02:46:00,33.4,32.9,28.73,North,0,6.9,7.8,98,0.00,,---,0.00,VWS V14.01,2013-02-26 08:46:00,
2013-02-26 02:47:00,33.4,32.9,28.73,NNE,22,7.8,7.8,98,0.00,,---,0.00,VWS V14.01,2013-02-26 08:47:00,
2013-02-26 02:48:00,33.4,32.9,28.73,NNW,338,5.8,9.6,98,0.00,,---,0.00,VWS V14.01,2013-02-26 08:48:00,
2013-02-26 02:49:00,33.4,32.9,28.73,NNE,22,5.8,5.8,98,0.00,,---,0.00,VWS V14.01,2013-02-26 08:49:00,
2013-02-26 02:50:00,33.4,32.9,28.73,NNE,22,8.1,10.5,98,0.00,,---,0.00,VWS V14.01,2013-02-26 08:50:00,
2013-02-26 02:51:00,33.4,32.9,28.73,NNE,22,9.6,10.5,98,0.00,,---,0.00,VWS V14.01,2013-02-26 08:51:00,
2013-02-26 02:52:00,33.4,32.9,28.73,NNW,338,7.4,10.5,98,0.00,,---,0.00,VWS V14.01,2013-02-26 08:52:00,
2013-02-26 02:53:00,33.4,32.9,28.73,NNE,22,7.8,8.7,98,0.00,,---,0.00,VWS V14.01,2013-02-26 08:53:00,
2013-02-26 02:54:00,33.4,32.9,28.73,North,0,6.3,7.8,98,0.00,,---,0.00,VWS V14.01,2013-02-26 08:54:00,
2013-02-26 02:55:00,33.4,32.9,28.73,NNE,22,7.4,7.8,98,0.00,,---,0.00,VWS V14.01,2013-02-26 08:55:00,
2013-02-26 02:56:00,33.4,32.9,28.73,NNW,338,7.8,9.4,98,0.00,,---,0.00,VWS V14.01,2013-02-26 08:56:00,
2013-02-26 02:57:00,33.4,32.9,28.73,NNW,338,5.6,7.8,98,0.00,,---,0.00,VWS V14.01,2013-02-26 08:57:00,
2013-02-26 02:58:00,33.4,32.9,28.73,NNE,22,8.1,10.1,98,0.00,,---,0.00,VWS V14.01,2013-02-26 08:58:00,
2013-02-26 02:59:00,33.4,32.9,28.73,NNE,22,7.6,10.1,98,0.00,,---,0.00,VWS V14.01,2013-02-26 08:59:00,
2013-02-26 03:00:00,33.4,32.9,28.73,NNE,22,7.4,7.6,98,0.00,,---,0.00,VWS V14.01,2013-02-26 09:00:00,
2013-02-26 03:01:00,33.3,32.8,28.73,North,0,7.6,7.6,98,0.00,,---,0.00,VWS V14.01,2013-02-26 09:01:00,
2013-02-26 03:02:00,33.3,32.8,28.73,NNE,22,7.8,7.8,98,0.00,,---,0.00,VWS V14.01,2013-02-26 09:02:00,
2013-02-26 03:03:00,33.3,32.8,28.73,NNW,338,9.8,9.8,98,0.00,,---,0.00,VWS V14.01,2013-02-26 09:03:00,
2013-02-26 03:04:00,33.4,32.9,28.73,NNW,338,7.8,9.8,98,0.00,,---,0.00,VWS V14.01,2013-02-26 09:04:00,
2013-02-26 03:05:00,33.3,32.8,28.73,North,0,6.0,7.6,98,0.00,,---,0.00,VWS V14.01,2013-02-26 09:05:00,
2013-02-26 03:06:00,33.3,32.8,28.73,NNE,22,7.6,8.5,98,0.00,,---,0.00,VWS V14.01,2013-02-26 09:06:00,
2013-02-26 03:07:00,33.3,32.8,28.73,North,0,5.6,7.6,98,0.00,,---,0.00,VWS V14.01,2013-02-26 09:07:00,
2013-02-26 03:08:00,33.3,32.8,28.73,NNE,22,5.4,7.6,98,0.00,,---,0.00,VWS V14.01,2013-02-26 09:08:00,
2013-02-26 03:09:00,33.3,32.8,28.73,NNW,338,7.6,10.7,98,0.00,,---,0.00,VWS V14.01,2013-02-26 09:09:00,
2013-02-26 03:10:00,33.3,32.8,28.73,North,0,5.6,9.8,98,0.00,,---,0.00,VWS V14.01,2013-02-26 09:10:00,
2013-02-26 03:11:00,33.3,32.8,28.73,NNE,22,7.6,8.7,98,0.00,,---,0.00,VWS V14.01,2013-02-26 09:11:00,
2013-02-26 03:12:00,33.3,32.8,28.73,NNW,338,6.0,9.8,98,0.00,,---,0.00,VWS V14.01,2013-02-26 09:12:00,
2013-02-26 03:13:00,33.3,32.8,28.73,NNW,338,6.0,6.0,98,0.00,,---,0.00,VWS V14.01,2013-02-26 09:13:00,
2013-02-26 03:14:00,33.3,32.8,28.73,NNW,338,7.4,7.4,98,0.00,,---,0.00,VWS V14.01,2013-02-26 09:14:00,
2013-02-26 03:15:00,33.3,32.8,28.73,North,0,7.8,7.8,98,0.00,,---,0.00,VWS V14.01,2013-02-26 09:15:00,
2013-02-26 03:16:00,33.3,32.8,28.73,NNW,338,6.3,10.1,98,0.00,,---,0.00,VWS V14.01,2013-02-26 09:16:00,
2013-02-26 03:17:00,33.3,32.8,28.73,NNW,338,5.4,7.8,98,0.00,,---,0.00,VWS V14.01,2013-02-26 09:17:00,
2013-02-26 03:18:00,33.3,32.8,28.73,NNE,22,5.8,5.8,98,0.00,,---,0.00,VWS V14.01,2013-02-26 09:18:00,
2013-02-26 03:19:00,33.3,32.8,28.73,NNE,22,8.1,8.1,98,0.00,,---,0.00,VWS V14.01,2013-02-26 09:19:00,
2013-02-26 03:20:00,33.3,32.8,28.73,NNW,338,4.0,6.5,98,0.00,,---,0.00,VWS V14.01,2013-02-26 09:20:00,
2013-02-26 03:21:00,33.3,32.8,28.73,North,0,6.5,7.4,98,0.00,,---,0.00,VWS V14.01,2013-02-26 09:21:00,
2013-02-26 03:22:00,33.3,32.8,28.73,NNE,22,6.0,6.5,98,0.00,,---,0.00,VWS V14.01,2013-02-26 09:22:00,
2013-02-26 03:24:00,33.3,32.8,28.73,NNW,338,3.8,7.2,98,0.00,,---,0.00,VWS V14.01,2013-02-26 09:24:00,
2013-02-26 03:25:00,33.3,32.8,28.73,NNE,22,5.4,5.4,98,0.00,,---,0.00,VWS V14.01,2013-02-26 09:25:00,
2013-02-26 03:26:00,33.3,32.8,28.73,NNE,22,5.4,6.0,98,0.00,,---,0.00,VWS V14.01,2013-02-26 09:26:00,
2013-02-26 03:27:00,33.3,32.8,28.73,North,0,3.1,5.4,98,0.00,,---,0.00,VWS V14.01,2013-02-26 09:27:00,
2013-02-26 03:28:00,33.3,32.8,28.73,NNW,338,6.3,6.3,98,0.00,,---,0.00,VWS V14.01,2013-02-26 09:28:00,
2013-02-26 03:29:00,33.3,32.8,28.73,North,0,4.3,6.3,98,0.00,,---,0.00,VWS V14.01,2013-02-26 09:29:00,
2013-02-26 03:30:00,33.3,32.8,28.73,NNE,22,6.5,9.2,98,0.00,,---,0.00,VWS V14.01,2013-02-26 09:30:00,
2013-02-26 03:31:00,33.3,32.8,28.73,NNE,22,7.4,9.8,98,0.00,,---,0.00,VWS V14.01,2013-02-26 09:31:00,
2013-02-26 03:32:00,33.3,32.8,28.73,NNE,22,7.4,9.2,98,0.00,,---,0.00,VWS V14.01,2013-02-26 09:32:00,
2013-02-26 03:33:00,33.3,32.8,28.73,NW,315,3.8,10.7,98,0.00,,---,0.00,VWS V14.01,2013-02-26 09:33:00,
2013-02-26 03:34:00,33.3,32.8,28.73,NNW,338,4.3,4.9,98,0.00,,---,0.00,VWS V14.01,2013-02-26 09:34:00,
2013-02-26 03:35:00,33.3,32.8,28.73,NNW,338,4.9,5.6,98,0.00,,---,0.00,VWS V14.01,2013-02-26 09:35:00,
2013-02-26 03:36:00,33.3,32.8,28.73,North,0,5.6,6.5,98,0.00,,---,0.00,VWS V14.01,2013-02-26 09:36:00,
2013-02-26 03:37:00,33.3,32.8,28.73,NNW,338,3.1,5.6,98,0.00,,---,0.00,VWS V14.01,2013-02-26 09:37:00,
2013-02-26 03:38:00,33.3,32.8,28.73,NNW,338,5.8,7.6,98,0.00,,---,0.00,VWS V14.01,2013-02-26 09:38:00,
2013-02-26 03:39:00,33.3,32.8,28.73,NNW,338,4.9,6.5,98,0.00,,---,0.00,VWS V14.01,2013-02-26 09:39:00,
2013-02-26 03:40:00,33.3,32.8,28.73,North,0,4.3,6.3,98,0.00,,---,0.00,VWS V14.01,2013-02-26 09:40:00,
2013-02-26 03:41:00,33.3,32.8,28.73,North,0,5.8,6.9,98,0.00,,---,0.00,VWS V14.01,2013-02-26 09:41:00,
2013-02-26 03:42:00,33.3,32.8,28.73,NNW,338,6.7,6.7,98,0.00,,---,0.00,VWS V14.01,2013-02-26 09:42:00,
2013-02-26 03:43:00,33.3,32.8,28.73,NNE,22,8.5,8.5,98,0.00,,---,0.00,VWS V14.01,2013-02-26 09:43:00,
2013-02-26 03:44:00,33.3,32.8,28.73,NNW,338,3.6,8.5,98,0.00,,---,0.00,VWS V14.01,2013-02-26 09:44:00,
2013-02-26 03:45:00,33.3,32.8,28.73,NNW,338,0.0,5.8,98,0.00,,---,0.00,VWS V14.01,2013-02-26 09:45:00,
2013-02-26 03:46:00,33.3,32.8,28.73,NNW,338,0.0,5.8,98,0.00,,---,0.00,VWS V14.01,2013-02-26 09:46:00,
2013-02-26 03:47:00,33.3,32.8,28.73,NNW,338,0.0,0.0,98,0.00,,---,0.00,VWS V14.01,2013-02-26 09:47:00,
2013-02-26 03:49:00,33.3,32.8,28.73,NNE,22,6.5,6.5,98,0.00,,---,0.00,VWS V14.01,2013-02-26 09:49:00,
2013-02-26 03:50:00,33.3,32.8,28.73,North,0,7.8,7.8,98,0.00,,---,0.00,VWS V14.01,2013-02-26 09:50:00,
2013-02-26 03:51:00,33.3,32.8,28.73,North,0,4.0,7.8,98,0.00,,---,0.00,VWS V14.01,2013-02-26 09:51:00,
2013-02-26 03:52:00,33.3,32.8,28.73,North,0,4.0,4.0,98,0.00,,---,0.00,VWS V14.01,2013-02-26 09:52:00,
2013-02-26 03:53:00,33.3,32.8,28.73,North,0,5.6,5.6,98,0.00,,---,0.00,VWS V14.01,2013-02-26 09:53:00,
2013-02-26 03:54:00,33.3,32.8,28.73,NNW,338,4.9,5.6,98,0.00,,---,0.00,VWS V14.01,2013-02-26 09:54:00,
2013-02-26 03:56:00,33.3,32.8,28.73,NNW,338,3.8,3.8,98,0.00,,---,0.00,VWS V14.01,2013-02-26 09:56:00,
2013-02-26 03:57:00,33.3,32.8,28.73,NNW,338,3.8,3.8,98,0.00,,---,0.00,VWS V14.01,2013-02-26 09:57:00,
2013-02-26 03:58:00,33.3,32.8,28.73,North,0,3.8,3.8,98,0.00,,---,0.00,VWS V14.01,2013-02-26 09:58:00,
2013-02-26 03:59:00,33.3,32.8,28.73,NNW,338,3.8,3.8,98,0.00,,---,0.00,VWS V14.01,2013-02-26 09:59:00,
2013-02-26 04:00:00,33.3,32.8,28.73,NNW,338,5.8,5.8,98,0.00,,---,0.00,VWS V14.01,2013-02-26 10:00:00,
2013-02-26 04:01:00,33.3,32.8,28.73,NNW,338,4.9,5.8,98,0.00,,---,0.00,VWS V14.01,2013-02-26 10:01:00,
2013-02-26 04:02:00,33.3,32.8,28.73,NNW,338,5.8,5.8,98,0.00,,---,0.00,VWS V14.01,2013-02-26 10:02:00,
2013-02-26 04:03:00,33.3,32.8,28.73,NNW,338,0.9,5.8,98,0.00,,---,0.00,VWS V14.01,2013-02-26 10:03:00,
2013-02-26 04:04:00,33.3,32.8,28.70,NNW,338,6.0,6.0,98,0.00,,---,0.00,VWS V14.01,2013-02-26 10:04:00,
2013-02-26 04:05:00,33.3,32.8,28.70,NNE,22,6.0,6.0,98,0.00,,---,0.00,VWS V14.01,2013-02-26 10:05:00,